[[{"header":{"parameterUnit":"m.s-1","parameterCategory":1,"la1":30.2992,"la2":30.254,"lo1":-89.0895,"lo2":-89.0443,"dy":0.0025,"dx":0.0025,"nx":19,"ny":19,"refTime":"2026-05-16T21:00:00:Z","depth":0,"parameterNumber":2,"parameterNumberName":"U-component_of_WINDS"},"data":[0,0,0,-5.1772,-5.1776,-5.1921,-5.1921,-5.2116,-5.2118,0,0,0,0,0,0,0,0,0,0,0,-5.1736,-5.1738,-5.1772,-5.1776,-5.1921,-5.1921,-5.2116,-5.2118,0,0,0,0,0,0,0,0,0,0,0,-5.1735,-5.1737,-5.1739,-5.1777,-5.192,-5.1921,-5.2115,-5.2002,0,0,0,0,0,0,0,0,0,0,-5.186,-5.1833,-5.1737,-5.1739,-5.1777,-5.192,-5.1921,-5.1997,-5.2009,-5.2055,0,-5.2098,0,-5.2111,-5.2132,-5.2132,0,0,0,-5.1771,-5.1823,-5.1856,-5.174,-5.1779,-5.192,-5.1854,-5.2004,-5.2018,-5.2072,-5.2101,-5.2108,-5.2115,-5.2133,-5.2134,-5.2417,-5.2419,0,0,-5.1763,-5.1765,-5.1846,-5.1866,-5.1845,-5.1849,-5.1858,-5.2012,-5.2043,-5.2101,-5.2112,-5.2118,-5.2134,-5.2136,-5.2416,-5.2417,0,0,0,-5.1743,-5.176,-5.1789,-5.1858,-5.1883,-5.1854,-5.1864,-5.2036,-5.2046,-5.2114,-5.212,-5.2136,-5.2138,-5.2414,-5.2416,-5.2495,0,0,0,-5.1738,-5.1749,-5.1786,-5.1789,-5.1881,-5.1962,-5.1885,-5.2035,-5.2053,-5.2119,-5.2136,-5.214,-5.2412,-5.2415,-5.2489,-5.2531,0,0,0,-5.1724,-5.1747,-5.177,-5.1789,-5.1852,-5.1959,-5.1977,-5.2039,-5.2057,-5.2133,-5.2141,-5.2411,-5.2415,-5.2484,-5.2522,-5.2605,0,0,0,-5.171,-5.1838,-5.1772,-5.1918,-5.1851,-5.2009,-5.1976,-5.2094,-5.2169,-5.2137,-5.2412,-5.2416,-5.2483,-5.2517,-5.26,-5.2673,-5.2705,0,0,-5.1873,-5.1858,-5.1944,-5.1889,-5.2059,-5.1986,-5.2168,-5.2234,-5.2238,-5.2357,-5.2364,-5.2491,-5.2522,-5.2604,-5.2887,-5.2912,0,0,0,-5.1997,-5.2058,-5.2103,-5.2175,-5.2229,-5.2279,-5.2317,-5.2342,-5.2442,-5.23,-5.2545,-5.2563,-5.2611,-5.2646,-5.2667,-5.2707,-5.2433,-5.2433,-5.2432,-5.2229,-5.2229,-5.2371,-5.239,-5.246,-5.2499,-5.2556,-5.2596,-5.2575,-5.2633,-5.2667,-5.2839,-5.288,-5.2896,-5.2938,-5.2708,-5.2709,-5.2709,-5.2709,-5.2466,-5.2552,-5.2524,-5.265,-5.2651,-5.2757,-5.2801,-5.2783,-5.2881,-5.2813,-5.2855,-5.2777,-5.2923,-5.296,-5.2715,-5.2714,-5.2713,-5.2713,-5.2712,-5.2615,-5.2656,-5.2686,-5.2791,-5.2872,-5.2888,-5.2984,-5.2981,-5.2979,-5.3021,-5.3055,-5.3054,-5.305,-5.3038,-5.3039,-5.304,-5.304,-5.3041,-5.3041,-5.2757,-5.2788,-5.287,-5.294,-5.2987,-5.3048,-5.3091,-5.3136,-5.3185,-5.3175,-5.3176,-5.3148,-5.2939,-5.2885,-5.305,-5.3048,-5.3047,-5.3046,-5.3046,-5.2991,-5.2938,-5.3064,-5.3111,-5.3194,-5.3275,-5.3272,-5.3365,-5.3403,-5.345,-5.3416,-5.3263,-5.3246,-5.3229,-5.3184,-5.3416,-5.3416,-5.3416,-5.3416,-5.3114,-5.3107,-5.3236,-5.3311,-5.3385,-5.3395,-5.3537,-5.3573,-5.3601,-5.3625,-5.3592,-5.3533,-5.3516,-5.3509,-5.3486,-5.3443,-5.3737,-5.3737,-5.3738,-5.3257,-5.3258,-5.3378,-5.3407,-5.3472,-5.3529,-5.3662,-5.3749,-5.377,-5.3751,-5.3642,-5.3629,-5.3534,-5.3503,-5.3476,-5.344,-5.3362,0,0]},{"header":{"parameterUnit":"m.s-1","parameterCategory":1,"la1":30.2992,"la2":30.254,"lo1":-89.0895,"lo2":-89.0443,"dy":0.0025,"dx":0.0025,"nx":19,"ny":19,"refTime":"2026-05-16T21:00:00:Z","depth":0,"parameterNumber":3,"parameterNumberName":"V-component_of_WINDS"},"data":[0,0,0,2.8662,2.8665,2.8798,2.8799,2.8945,2.8946,0,0,0,0,0,0,0,0,0,0,0,2.8611,2.8612,2.8662,2.8665,2.8798,2.8799,2.8945,2.8946,0,0,0,0,0,0,0,0,0,0,0,2.8611,2.8611,2.8612,2.8665,2.8798,2.8799,2.8945,2.8852,0,0,0,0,0,0,0,0,0,0,2.8726,2.8668,2.8611,2.8612,2.8666,2.8798,2.8799,2.8848,2.8858,2.8875,0,2.8891,0,2.8921,2.8955,2.8955,0,0,0,2.8673,2.866,2.8707,2.8612,2.8667,2.8798,2.874,2.8854,2.8865,2.8888,2.8893,2.8899,2.8924,2.8956,2.8956,2.9041,2.9041,0,0,2.8665,2.8628,2.8699,2.8714,2.8695,2.8736,2.8744,2.8861,2.8862,2.8894,2.8903,2.8926,2.8957,2.8958,2.9041,2.9041,0,0,0,2.8639,2.8622,2.8667,2.8707,2.8733,2.874,2.8749,2.8857,2.8875,2.8905,2.8928,2.8957,2.8959,2.9041,2.9041,2.9008,0,0,0,2.8635,2.8607,2.8663,2.8641,2.8731,2.8797,2.8742,2.8867,2.8881,2.8927,2.8957,2.896,2.9041,2.9041,2.9009,2.8997,0,0,0,2.8606,2.8604,2.8619,2.8639,2.8696,2.8796,2.8821,2.8871,2.8895,2.8956,2.8961,2.9041,2.9041,2.9009,2.8999,2.901,0,0,0,2.8563,2.8585,2.8618,2.8651,2.8694,2.8776,2.8821,2.8883,2.8931,2.8958,2.9041,2.9041,2.901,2.9,2.901,2.9012,2.9009,0,0,2.857,2.8585,2.8607,2.8641,2.8708,2.8758,2.8819,2.8897,2.8935,2.9002,2.9005,2.9008,2.8999,2.901,2.9008,2.9005,0,0,0,2.8597,2.8612,2.8638,2.8685,2.8747,2.8799,2.8872,2.8901,2.8962,2.8963,2.9016,2.9012,2.9019,2.9022,2.902,2.9029,2.904,2.904,2.904,2.855,2.8602,2.8643,2.871,2.8754,2.8831,2.8871,2.8922,2.8958,2.897,2.899,2.8983,2.8985,2.8983,2.8992,2.8995,2.8995,2.8995,2.8995,2.8564,2.8595,2.8646,2.8705,2.8758,2.8806,2.888,2.8905,2.8956,2.8971,2.8981,2.8993,2.8979,2.899,2.8993,2.8993,2.8993,2.8994,2.8994,2.854,2.8564,2.8601,2.8675,2.8725,2.8791,2.884,2.8886,2.8928,2.8938,2.8964,2.8965,2.8971,2.8947,2.8947,2.8947,2.8947,2.8947,2.8947,2.8499,2.8543,2.858,2.865,2.8687,2.874,2.8818,2.8855,2.8906,2.8935,2.8936,2.897,2.8969,2.8968,2.8947,2.8947,2.8947,2.8947,2.8947,2.8494,2.8504,2.856,2.8597,2.8684,2.8731,2.879,2.886,2.8896,2.8918,2.8952,2.8944,2.8961,2.8963,2.8962,2.8941,2.8941,2.8941,2.8941,2.8473,2.8488,2.8558,2.8614,2.8674,2.8734,2.8794,2.8855,2.8919,2.8944,2.8954,2.8957,2.8957,2.8974,2.8976,2.8976,2.8959,2.8959,2.8959,2.8473,2.8496,2.854,2.8607,2.8678,2.8738,2.8796,2.8857,2.893,2.8961,2.8965,2.8964,2.897,2.8969,2.8998,2.9,2.9001,0,0]}]]